Simultaneous Nadir Overpasses (SNOs) Predictions

Prediction of SNOs between GOES-15 and LANDSAT-8 Satellite Orbit:

Table of predicted SNOs for the next 14.0 days since TLE Epoch: 3/21/2020
Index Date Time (GOES-15) GOES-15 Lat,Lon LANDSAT-8 Lat,Lon Distance(km) Time Diff (sec)
1 03/22/2020 18:30:17 0.27,-128.18 -0.43,-124.93 370.03 80
2 03/23/2020 06:54:20 -0.29,-128.11 -0.74,-130.11 227.49 80
3 03/25/2020 06:39:28 -0.28,-128.06 -0.08,-127.16 103.22 80
4 03/25/2020 19:03:22 0.30,-128.11 1.19,-132.31 478.19 80
5 03/27/2020 06:27:15 -0.28,-128.01 0.51,-124.19 433.46 80
6 03/27/2020 18:51:09 0.29,-128.05 0.59,-129.35 148.15 80
7 03/29/2020 18:36:17 0.28,-127.99 -0.07,-126.40 181.20 80
8 03/30/2020 07:00:20 -0.30,-127.92 -1.10,-131.58 416.81 80
9 04/01/2020 06:48:08 -0.29,-127.85 -0.43,-128.63 88.58 80
10 04/03/2020 06:33:15 -0.28,-127.77 0.17,-125.67 239.11 80
11 04/03/2020 18:54:30 0.29,-127.80 0.94,-130.82 343.44 80




NCC Satellite Simultaneous Nadir Overpasses (SNOs) Prediction Service
